STARLINK-11143, 59953

Orbit data source: Space-Track

STARLINK-11143, 59953 is a payload satellite owned by SpaceX/Seattle (US) in LEO that was launched on Wed, 05 Jun 2024 UTC via an FALCON 9 launch vehicle from the Air Force Eastern Test Range (AFETR). Payload-class satellites include a variety of spacecraft equipped with specific instruments for various scientific and technological missions. These include communications satellites like Starlink; space stations such as the ISS; scientific satellites like the Hubble; Earth observation satellites from companies like Planet Labs, Umbra, and HawkEye 360; GPS; miniature CubeSats for education and research; and military/defense satellites.

Loading next visibility...
Identifier
59953, 2024-107J
Orbit
LEO
Country
Flag of USUS
Related business
Manufacturer
SpaceX/Seattle
Mission
Operational spacecraft
Bus & Motor
STARLINK V2MD, Unknown motor
Mass
960 kg wet, ~910 kg dry
Launch date (UTC)
2024-06-05 (1 year ago)
Launch vehicle
FALCON 9
Launch site
Air Force Eastern Test Range (AFETR)
Object type
Payload
Rocket body
Debris
Shape & HBR
Unknown
Radar Cross Section
Large (>1 m²)

Expand to show TLE details & history
Last TLE update: 1 day ago

TLE from 1 day ago
0 STARLINK-11143
1 59953U 24107J   25260.61433297 -.00001845  00000-0 -10370-4 0  9990
2 59953  53.1593  24.3793 0001151  89.4477 270.6673 15.69713688 74965
Epoch: 2025-09-17T14:44Z
TLE epoch observation values (Epoch: 2025-09-17T14:44:38.368Z)
Latitude
-0.00001°
Longitude
166.43167°
Altitude
360.622 km
Speed
7.694 km/s
True Right ascension
01h 37m 31s
True Declination
0° 00' 00"
Sunlit
Object was in full shadow at epoch
Visualization orbit readout
Latitude
Unknown
Longitude
Unknown
Altitude
Unknown
Speed
Unknown
Apparent Right ascension
Unknown
Apparent Declination
Unknown
Sunlit
N/A
Visualization observer readout
Local Sidereal Time
13:53:34
Azimuth
Unknown
Elevation
Unknown
Doppler factor
Unknown
Orbital elements
Apogee altitude
360.753 km
Perigee altitude
359.201 km
Semi-major axis
6,738.114 km
Eccentricity
0.00012
Inclination
53.1593°
RAAN
24.3793°
Arg. of periapsis
89.4477°
True anomaly
270.65411°
Mean anomaly
270.6673°
Eccentric anomaly
270.66071°
Mean motion
3.92406 °/min
Orbital period
91.74 mins
BSTAR
-0.00001037
Loading maneuver chart data...
Computing Atmospheric mass density...
Loading historical data...
Loading historical data...
Loading historical data...
Loading historical data...
Loading historical data...
Loading historical data...
Loading historical data...

Documentation

Showing up to 5 results
|